2015-11-03 00:06:16 r, 17.09m,0000000013Hz,0000035738c,0000000.078s, 021.9C,00002195
2015-11-03 00:16:16 r, 17.02m,0000000014Hz,0000033742c,0000000.073s, 022.2C,00002195
2015-11-03 00:26:16 r, 16.66m,0000000019Hz,0000024009c,0000000.052s, 022.2C,00002195
2015-11-03 00:36:16 r, 16.61m,0000000020Hz,0000022790c,0000000.049s, 022.2C,00002195
2015-11-03 00:46:16 r, 16.11m,0000000032Hz,0000014460c,0000000.031s, 022.5C,00002195
2015-11-03 00:56:16 r, 16.10m,0000000033Hz,0000014329c,0000000.031s, 022.8C,00002195
2015-11-03 01:06:16 r, 16.04m,0000000034Hz,0000013558c,0000000.029s, 022.8C,00002195
2015-11-03 01:16:16 r, 15.88m,0000000040Hz,0000011655c,0000000.025s, 022.8C,00002195
2015-11-03 01:26:16 r, 15.97m,0000000036Hz,0000012766c,0000000.028s, 022.8C,00002195
2015-11-03 01:36:16 r, 16.04m,0000000034Hz,0000013563c,0000000.029s, 022.8C,00002195
2015-11-03 01:46:16 r, 15.96m,0000000036Hz,0000012627c,0000000.027s, 022.8C,00002195
2015-11-03 01:56:16 r, 15.98m,0000000035Hz,0000012924c,0000000.028s, 022.8C,00002195
2015-11-03 02:06:16 r, 15.83m,0000000041Hz,0000011205c,0000000.024s, 022.5C,00002195
2015-11-03 02:16:16 r, 16.08m,0000000033Hz,0000014055c,0000000.031s, 022.5C,00002195
2015-11-03 02:26:16 r, 16.06m,0000000034Hz,0000013873c,0000000.030s, 022.5C,00002195
2015-11-03 02:36:16 r, 15.89m,0000000039Hz,0000011827c,0000000.026s, 022.5C,00002195
2015-11-03 02:46:16 r, 15.91m,0000000039Hz,0000011999c,0000000.026s, 022.5C,00002195
2015-11-03 02:56:16 r, 15.74m,0000000044Hz,0000010311c,0000000.022s, 022.5C,00002195
2015-11-03 03:06:16 r, 15.87m,0000000040Hz,0000011624c,0000000.025s, 022.5C,00002195
2015-11-03 03:16:16 r, 15.69m,0000000046Hz,0000009884c,0000000.021s, 022.5C,00002195
2015-11-03 03:26:16 r, 15.85m,0000000041Hz,0000011444c,0000000.025s, 022.5C,00002195
2015-11-03 03:36:16 r, 15.67m,0000000047Hz,0000009654c,0000000.021s, 022.5C,00002195
2015-11-03 03:46:16 r, 15.69m,0000000046Hz,0000009842c,0000000.021s, 022.5C,00002195
2015-11-03 03:56:16 r, 15.68m,0000000047Hz,0000009735c,0000000.021s, 022.5C,00002195
2015-11-03 04:06:16 r, 15.69m,0000000046Hz,0000009886c,0000000.021s, 022.5C,00002195
2015-11-03 04:16:16 r, 15.65m,0000000048Hz,0000009474c,0000000.021s, 022.5C,00002195
2015-11-03 04:26:16 r, 15.58m,0000000051Hz,0000008938c,0000000.019s, 022.8C,00002195
2015-11-03 04:36:16 r, 15.62m,0000000049Hz,0000009243c,0000000.020s, 022.8C,00002195
2015-11-03 04:46:16 r, 15.79m,0000000042Hz,0000010772c,0000000.023s, 022.8C,00002195
2015-11-03 04:56:16 r, 16.15m,0000000031Hz,0000015088c,0000000.033s, 022.5C,00002195
2015-11-03 05:06:16 r, 16.08m,0000000032Hz,0000014093c,0000000.031s, 022.5C,00002195
2015-11-03 05:16:18 r, 16.29m,0000000027Hz,0000017260c,0000000.037s, 022.2C,00002195
2015-11-03 05:26:16 r, 15.87m,0000000040Hz,0000011529c,0000000.025s, 022.2C,00002195
2015-11-03 05:36:16 r, 16.02m,0000000034Hz,0000013406c,0000000.029s, 021.9C,00002195
2015-11-03 05:46:18 r, 16.32m,0000000026Hz,0000017660c,0000000.038s, 021.9C,00002195
2015-11-03 05:56:16 r, 16.17m,0000000030Hz,0000015245c,0000000.033s, 021.9C,00002195
2015-11-03 06:06:18 r, 15.98m,0000000035Hz,0000012836c,0000000.028s, 021.9C,00002195
2015-11-03 06:16:16 r, 15.87m,0000000040Hz,0000011600c,0000000.025s, 021.9C,00002195
2015-11-03 06:26:16 r, 15.65m,0000000048Hz,0000009492c,0000000.021s, 021.9C,00002195
2015-11-03 06:36:16 r, 15.19m,0000000074Hz,0000006224c,0000000.014s, 021.5C,00002195
2015-11-03 06:46:16 r, 13.84m,0000000259Hz,0000000000c,0000000.000s, 021.5C,00002195
2015-11-03 06:56:18 r, 11.59m,0000002048Hz,0000000000c,0000000.000s, 021.5C,00002195
2015-11-03 07:06:16 r, 09.75m,0000011153Hz,0000000000c,0000000.000s, 021.5C,00002195
2015-11-03 07:16:17 r, 08.46m,0000037106Hz,0000000000c,0000000.000s, 021.2C,00002195
2015-11-03 07:26:16 r, 07.70m,0000073833Hz,0000000000c,0000000.000s, 021.2C,00002195
2015-11-03 07:36:17 r, 07.24m,0000113132Hz,0000000000c,0000000.000s, 021.2C,00002195
2015-11-03 07:46:17 r, 06.73m,0000181014Hz,0000000000c,0000000.000s, 021.5C,00002195
2015-11-03 07:56:16 r, 06.25m,0000282034Hz,0000000000c,0000000.000s, 021.2C,00002195
2015-11-03 08:06:16 r, 05.94m,0000372874Hz,0000000000c,0000000.000s, 021.2C,00002195
2015-11-03 08:16:17 r, 00.00m,0000493533Hz,0000000000c,0000000.000s, 021.2C,00002195
2015-11-03 08:26:17 r, 00.00m,0000552186Hz,0000000000c,0000000.000s, 021.5C,00002195
2015-11-03 08:36:16 r, 00.00m,0000563741Hz,0000000000c,0000000.000s, 021.2C,00002195
2015-11-03 08:46:17 r, 00.00m,0000563722Hz,0000000000c,0000000.000s, 021.2C,00002195
2015-11-03 08:56:17 r, 00.00m,0000563755Hz,0000000000c,0000000.000s, 021.2C,00002195
2015-11-03 09:06:16 r, 00.00m,0000563739Hz,0000000000c,0000000.000s, 021.2C,00002195
2015-11-03 09:16:17 r, 00.00m,0000563714Hz,0000000000c,0000000.000s, 021.2C,00002195
2015-11-03 09:26:17 r, 00.00m,0000563718Hz,0000000000c,0000000.000s, 021.5C,00002195
2015-11-03 09:36:16 r, 00.00m,0000563808Hz,0000000000c,0000000.000s, 021.2C,00002195
2015-11-03 09:46:18 r, 00.00m,0000563695Hz,0000000000c,0000000.000s, 021.5C,00002195
2015-11-03 09:56:16 r, 00.00m,0000563704Hz,0000000000c,0000000.000s, 021.5C,00002195
2015-11-03 10:12:45 r, 00.00m,0000563675Hz,0000000000c,0000000.000s, 020.6C,00002195
2015-11-03 10:22:45 r, 00.00m,0000563679Hz,0000000000c,0000000.000s, 020.9C,00002195
2015-11-03 10:32:47 r, 00.00m,0000563828Hz,0000000000c,0000000.000s, 021.2C,00002195
2015-11-03 10:42:45 r, 00.00m,0000563777Hz,0000000000c,0000000.000s, 021.5C,00002195
2015-11-03 10:52:45 r, 00.00m,0000563790Hz,0000000000c,0000000.000s, 021.9C,00002195
2015-11-03 11:02:45 r, 00.00m,0000563844Hz,0000000000c,0000000.000s, 021.9C,00002195
2015-11-03 11:12:45 r, 00.00m,0000563840Hz,0000000000c,0000000.000s, 021.9C,00002195
2015-11-03 11:22:45 r, 00.00m,0000563771Hz,0000000000c,0000000.000s, 022.2C,00002195
2015-11-03 11:32:45 r, 00.00m,0000563825Hz,0000000000c,0000000.000s, 021.9C,00002195
2015-11-03 11:42:47 r, 00.00m,0000563714Hz,0000000000c,0000000.000s, 022.2C,00002195
2015-11-03 11:52:45 r, 00.00m,0000563795Hz,0000000000c,0000000.000s, 022.5C,00002195
2015-11-03 12:02:46 r, 00.00m,0000563799Hz,0000000000c,0000000.000s, 022.2C,00002195
2015-11-03 12:12:45 r, 00.00m,0000563759Hz,0000000000c,0000000.000s, 022.2C,00002195
2015-11-03 12:22:45 r, 00.00m,0000563834Hz,0000000000c,0000000.000s, 022.5C,00002195
2015-11-03 12:32:47 r, 00.00m,0000563867Hz,0000000000c,0000000.000s, 022.5C,00002195
2015-11-03 12:42:45 r, 00.00m,0000563862Hz,0000000000c,0000000.000s, 022.5C,00002195
2015-11-03 12:52:45 r, 00.00m,0000563909Hz,0000000000c,0000000.000s, 022.5C,00002195
2015-11-03 13:02:45 r, 00.00m,0000563868Hz,0000000000c,0000000.000s, 022.5C,00002195
2015-11-03 13:12:45 r, 00.00m,0000563794Hz,0000000000c,0000000.000s, 022.5C,00002195
2015-11-03 13:22:45 r, 00.00m,0000563845Hz,0000000000c,0000000.000s, 022.5C,00002195
2015-11-03 13:32:46 r, 00.00m,0000563803Hz,0000000000c,0000000.000s, 022.2C,00002195
2015-11-03 13:42:45 r, 00.00m,0000563905Hz,0000000000c,0000000.000s, 022.2C,00002195
2015-11-03 13:52:45 r, 00.00m,0000563842Hz,0000000000c,0000000.000s, 022.2C,00002195
2015-11-03 14:02:46 r, 00.00m,0000563780Hz,0000000000c,0000000.000s, 022.2C,00002195
2015-11-03 14:12:45 r, 00.00m,0000563739Hz,0000000000c,0000000.000s, 022.2C,00002195
2015-11-03 14:22:46 r, 00.00m,0000563747Hz,0000000000c,0000000.000s, 022.2C,00002195
2015-11-03 14:32:45 r, 00.00m,0000563816Hz,0000000000c,0000000.000s, 022.2C,00002195
2015-11-03 14:42:45 r, 00.00m,0000563827Hz,0000000000c,0000000.000s, 022.2C,00002195
2015-11-03 14:52:45 r, 00.00m,0000563766Hz,0000000000c,0000000.000s, 022.2C,00002195
2015-11-03 15:02:47 r, 00.00m,0000525366Hz,0000000000c,0000000.000s, 022.2C,00002195
2015-11-03 15:12:45 r, 06.04m,0000342688Hz,0000000000c,0000000.000s, 021.9C,00002195
2015-11-03 15:22:45 r, 05.87m,0000399857Hz,0000000000c,0000000.000s, 021.9C,00002195
2015-11-03 15:32:47 r, 00.00m,0000457325Hz,0000000000c,0000000.000s, 021.9C,00002195
2015-11-03 15:42:45 r, 00.00m,0000409237Hz,0000000000c,0000000.000s, 021.9C,00002195
2015-11-03 15:52:45 r, 06.07m,0000331876Hz,0000000000c,0000000.000s, 021.9C,00002195
2015-11-03 16:02:45 r, 06.19m,0000298209Hz,0000000000c,0000000.000s, 021.9C,00002195
2015-11-03 16:12:47 r, 06.14m,0000313150Hz,0000000000c,0000000.000s, 022.2C,00002195
2015-11-03 16:22:46 r, 06.31m,0000267489Hz,0000000000c,0000000.000s, 022.2C,00002195
2015-11-03 16:32:46 r, 06.54m,0000215755Hz,0000000000c,0000000.000s, 022.2C,00002195
2015-11-03 16:42:45 r, 07.11m,0000127654Hz,0000000000c,0000000.000s, 021.9C,00002195
2015-11-03 16:52:46 r, 07.75m,0000070756Hz,0000000000c,0000000.000s, 021.9C,00002195
2015-11-03 17:02:47 r, 08.84m,0000025903Hz,0000000000c,0000000.000s, 021.9C,00002195
2015-11-03 17:12:45 r, 09.49m,0000014248Hz,0000000000c,0000000.000s, 021.9C,00002195
2015-11-03 17:22:46 r, 11.27m,0000002753Hz,0000000000c,0000000.000s, 021.9C,00002195
2015-11-03 17:32:46 r, 13.21m,0000000461Hz,0000000000c,0000000.000s, 021.9C,00002195
2015-11-03 17:42:46 r, 14.75m,0000000113Hz,0000004140c,0000000.009s, 021.9C,00002195
2015-11-03 17:52:47 r, 15.36m,0000000063Hz,0000007246c,0000000.016s, 021.9C,00002195
2015-11-03 18:02:46 r, 15.50m,0000000058Hz,0000008226c,0000000.018s, 021.9C,00002195
2015-11-03 18:12:46 r, 15.53m,0000000054Hz,0000008533c,0000000.019s, 021.9C,00002195
2015-11-03 18:22:46 r, 15.56m,0000000053Hz,0000008724c,0000000.019s, 021.9C,00002195
2015-11-03 18:32:45 r, 15.74m,0000000045Hz,0000010297c,0000000.022s, 021.9C,00002195
2015-11-03 18:42:47 r, 15.79m,0000000042Hz,0000010752c,0000000.023s, 021.9C,00002195
2015-11-03 18:52:46 r, 15.69m,0000000047Hz,0000009847c,0000000.021s, 021.9C,00002195
2015-11-03 19:02:46 r, 15.83m,0000000041Hz,0000011199c,0000000.024s, 021.9C,00002195
2015-11-03 19:12:45 r, 15.88m,0000000038Hz,0000011744c,0000000.025s, 021.9C,00002195
2015-11-03 19:22:45 r, 15.83m,0000000041Hz,0000011141c,0000000.024s, 021.9C,00002195
2015-11-03 19:32:47 r, 15.96m,0000000037Hz,0000012544c,0000000.027s, 021.9C,00002195
2015-11-03 19:42:45 r, 16.11m,0000000031Hz,0000014506c,0000000.031s, 021.9C,00002195
2015-11-03 19:52:46 r, 15.95m,0000000037Hz,0000012528c,0000000.027s, 021.9C,00002195
2015-11-03 20:02:46 r, 16.02m,0000000035Hz,0000013279c,0000000.029s, 021.9C,00002195
2015-11-03 20:12:45 r, 15.99m,0000000036Hz,0000012967c,0000000.028s, 022.2C,00002195
2015-11-03 20:22:45 r, 15.78m,0000000043Hz,0000010731c,0000000.023s, 022.2C,00002195
2015-11-03 20:32:46 r, 16.16m,0000000030Hz,0000015173c,0000000.033s, 022.2C,00002195
2015-11-03 20:42:45 r, 15.91m,0000000039Hz,0000012055c,0000000.026s, 022.2C,00002195
2015-11-03 20:52:46 r, 15.45m,0000000056Hz,0000007931c,0000000.017s, 021.9C,00002195
2015-11-03 21:02:46 r, 15.62m,0000000050Hz,0000009261c,0000000.020s, 021.9C,00002195
2015-11-03 21:12:45 r, 15.82m,0000000043Hz,0000011013c,0000000.024s, 021.9C,00002195
2015-11-03 21:22:45 r, 15.68m,0000000046Hz,0000009762c,0000000.021s, 021.9C,00002195
2015-11-03 21:32:46 r, 15.52m,0000000055Hz,0000008424c,0000000.018s, 021.9C,00002195
2015-11-03 21:42:45 r, 15.43m,0000000060Hz,0000007743c,0000000.017s, 021.9C,00002195
2015-11-03 21:52:45 r, 15.38m,0000000062Hz,0000007396c,0000000.016s, 021.9C,00002195
2015-11-03 22:02:46 r, 15.30m,0000000066Hz,0000006893c,0000000.015s, 021.9C,00002195
2015-11-03 22:12:46 r, 15.38m,0000000061Hz,0000007401c,0000000.016s, 021.9C,00002195
2015-11-03 22:22:47 r, 15.42m,0000000060Hz,0000007651c,0000000.017s, 021.9C,00002195
2015-11-03 22:32:45 r, 15.73m,0000000046Hz,0000010184c,0000000.022s, 021.9C,00002195
2015-11-03 22:42:45 r, 16.04m,0000000035Hz,0000013601c,0000000.030s, 021.9C,00002195
2015-11-03 22:52:47 r, 15.61m,0000000050Hz,0000009178c,0000000.020s, 021.9C,00002195
2015-11-03 23:02:46 r, 15.63m,0000000050Hz,0000009322c,0000000.020s, 021.9C,00002195
2015-11-03 23:12:45 r, 15.47m,0000000057Hz,0000008047c,0000000.017s, 021.9C,00002195
2015-11-03 23:22:46 r, 15.41m,0000000061Hz,0000007576c,0000000.016s, 021.9C,00002195
2015-11-03 23:32:46 r, 15.39m,0000000062Hz,0000007437c,0000000.016s, 021.9C,00002195
2015-11-03 23:42:46 r, 15.36m,0000000064Hz,0000007235c,0000000.016s, 021.9C,00002195
2015-11-03 23:52:45 r, 15.24m,0000000071Hz,0000006468c,0000000.014s, 021.9C,00002195
